Showing default

HAIYANG 1C, 43609

Orbit data source: Space-Track

HAIYANG 1C, 43609 is a Chinese payload satellite in SSO that was launched on Fri, 07 Sep 2018 UTC via a CHANG ZHENG 2C launch vehicle from the Taiyaun Space Center, China (TSC). Payloads include a variety of satellites, spacecraft, and rockets equipped with specific instruments for various scientific and technological missions. These include communications satellites like Starlink; space stations such as the ISS; scientific satellites like the Hubble; Earth observation satellites from companies like Planet Labs, Umbra, and HawkEye 360; GPS; miniature CubeSats for education and research; and military/defense satellites.

Loading next visibility...
HAIYANG 1C details
Identifier
43609, 2018-068A
Orbit
SSO
Last TLE update6 hours ago
Origin
Flag of CNGYZ/CASC (CN / PRC)
ManufacturerDFH
MissionOperational Civil Imaging
Bus & MotorCAST-968, Unknown motor
Mass442 kg wet, 429 kg dry
Launch date (UTC)
2018-09-07 (6 years ago)
Launch vehicle
CHANG ZHENG 2C
Launch site
Taiyaun Space Center, China (TSC)
Object type
Payload
Rocket body
Debris
Shape & HBRBox + 2 Pan, 7.5 m
Radar Cross Section3.660 m², Large (>1 m²)

Expand to show TLE details & history

TLE from 6 hours ago
0 HAIYANG 1C
1 43609U 18068A   24340.19282650  .00000541  00000-0  20900-3 0  9995
2 43609  98.5873  47.5751 0009337 318.2760  41.7712 14.34094493326961
Epoch: 2024-12-05T04:37Z
Definitive object data (Epoch: 2024-12-05T04:37:40.209Z)
Latitude-0.00001°
Longitude-96.31958°
Altitude776.033 km
Speed7.469 km/s
True Right ascension03h 10m 18s
True Declination0° 00' 00"
Sunlit
Object was in full shadow at TLE epoch
Visualization TLE readout
Latitude-63.11657°
Longitude66.7005°
Altitude800.302 km
Speed7.453 km/s
Apparent Right ascension18h 18m 54s
Apparent Declination-62° 54' 08"
Sunlit
Object is in daylight
Visualization observer readout
Local Sidereal Time08:45:42
Azimuth148.74° SSE
Elevation-58.358°
Doppler factor1
Orbital elements
Apogee altitude781.89 km
Perigee altitude768.532 km
Semi-major axis7,153.348 km
Eccentricity0.0009337
Inclination98.5873°
RAAN47.5751°
Arg. of periapsis318.276°
True anomaly41.84254°
Mean anomaly41.7712°
Eccentric anomaly41.80686°
Mean motion3.58739 °/min
BSTAR0.000209
Orbital period100.35 mins
Loading maneuver chart data...
Loading historical data...
Loading historical data...
Loading historical data...
Loading historical data...
Loading historical data...
Loading historical data...
Loading historical data...
Other satellites on launch #68 in the year 2018 (2018-09-07 UTC)

HAIYANG 1C Visibility forecast

Observer location: undefined°, undefined

Span
Click to sort rows by Start time (UTC) header in descending order
Start Az.
Max El. time (UTC)
Max El. Az.
Max El.
End time (UTC)
End Az.
8 mins2024-12-05 16:56:15.170Z34.813° NE2024-12-05 17:00:15.170Z96.145° ESE30.501°2024-12-05 17:04:15.170Z159.746° S
7 mins2024-12-05 18:36:15.170Z340.501° N2024-12-05 18:39:15.170Z295.689° NW24.183°2024-12-05 18:43:15.170Z240.244° WSW
8 mins2024-12-06 04:12:15.170Z139.719° SSE2024-12-06 04:16:15.170Z58.058° ENE36.666°2024-12-06 04:20:15.170Z359.955° N
5 mins2024-12-06 05:53:15.170Z237° WSW2024-12-06 05:55:15.170Z265.008° W17.901°2024-12-06 05:58:15.170Z305.093° NW
|